Location: Paddlesworth
(51.1000°N, 1.1333°E)
Time: 03:06:37
(UTC+00:00)

Cosmos 1959 Rocket - Pass Details

Date: 11 May 2021
Orbit: 946 x 998 km, 83.0° (Epoch: 14 June)

Event Time Altitude Azimuth Distance (km) Brightness Sun altitude
Rises 22:59:46 0° 349° (NNW) 3,694 9.2 -19.8°
Reaches altitude 10° 23:02:19 10° 348° (NNW) 2,735 8.1 -19.9°
Maximum altitude 23:08:33 76° 264° (W) 1,000 4.5 -20.1°
Enters shadow 23:11:19 35° 186° (S) 1,502 5.0 -20.2°
